Location: Little Baddow
(51.7333°N, 0.5667°E)
Time: 13:14:30
(UTC+00:00)

COSMOS 2455 - Visible Passes

Search period start: 14 February 2026 00:00
Search period end: 24 February 2026 00:00
Orbit: 899 x 909 km, 67.1° (Epoch: 13 February)

Date Brightness Start Highest point End Pass type
(mag) Time Alt. Az. Time Alt. Az. Time Alt. Az.
14 Feb 4.5 03:51:40 19° SSE 03:54:40 29° ESE 03:59:46 10° NE visible
14 Feb 2.8 05:34:51 14° SW 05:40:10 69° NW 05:46:13 10° NE visible
15 Feb 4.0 03:56:05 28° SSE 03:58:14 37° ESE 04:03:43 10° NE visible
15 Feb 3.0 05:39:15 16° WSW 05:43:59 56° NW 05:49:57 10° NE visible
16 Feb 3.6 04:00:19 39° SSE 04:01:50 48° ESE 04:07:36 10° NE visible
16 Feb 3.2 05:43:29 17° WSW 05:47:50 47° NW 05:53:40 10° NNE visible
17 Feb 5.4 02:21:17 12° E 02:21:17 12° E 02:23:06 10° ENE visible
17 Feb 3.2 04:04:26 53° SSE 04:05:29 61° ESE 04:11:26 10° NE visible
17 Feb 3.4 05:47:35 17° W 05:51:44 39° NW 05:57:24 10° NNE visible
18 Feb 5.2 02:25:18 16° E 02:25:18 16° E 02:27:51 10° ENE visible
18 Feb 2.8 04:08:26 67° S 04:09:10 77° ESE 04:15:13 10° NE visible
18 Feb 3.7 05:51:35 16° W 05:55:39 34° NNW 06:01:08 10° NNE visible
19 Feb 5.0 02:29:14 20° E 02:29:14 20° E 02:32:08 10° ENE visible
19 Feb 2.7 04:12:22 76° SW 04:12:54 86° NW 04:18:59 10° NE visible
19 Feb 3.9 05:55:30 15° W 05:59:38 29° NNW 06:04:52 10° NNE visible
20 Feb 4.7 02:33:06 24° E 02:33:06 24° E 02:36:14 10° NE visible
20 Feb 2.7 04:16:14 68° W 04:16:40 71° NW 04:22:43 10° NE visible
20 Feb 4.0 05:59:21 13° WNW 06:03:37 26° NNW 06:08:38 10° NNE visible
21 Feb 4.5 02:36:54 28° ENE 02:36:54 28° ENE 02:40:12 10° NE visible
21 Feb 2.9 04:20:02 56° WNW 04:20:28 58° NW 04:26:27 10° NE visible
21 Feb 4.2 06:03:09 11° WNW 06:07:39 23° NNW 06:12:26 10° NNE visible
22 Feb 4.4 02:40:40 32° ENE 02:40:40 32° ENE 02:44:05 10° NE visible
22 Feb 3.1 04:23:47 47° WNW 04:24:19 48° NW 04:30:10 10° NNE visible
22 Feb 4.3 06:07:09 10° WNW 06:11:42 21° NNW 06:16:16 10° NNE visible
23 Feb 4.2 02:44:22 35° ENE 02:44:22 35° ENE 02:47:55 10° NE visible
23 Feb 3.4 04:27:29 39° NW 04:28:12 40° NW 04:33:54 10° NNE visible
23 Feb 4.5 06:11:25 10° WNW 06:15:47 20° NNW 06:20:10 10° NE visible
